Location: Maccacari
(45.1333°N, 11.1333°E)
Time: 23:01:10
(UTC+00:00)

CENTAUR R/B - Pass Details

Date: 18 September 2020
Orbit: 755 x 1433 km, 63.4° (Epoch: 02 October)

Event Time Altitude Azimuth Distance (km) Brightness Sun altitude
Rises 19:24:36 0° 322° (NW) 4,113 6.9 -22.0°
Reaches altitude 10° 19:27:15 10° 325° (NW) 3,232 6.1 -22.4°
Maximum altitude 19:35:15 68° 48° (NE) 1,458 3.2 -23.7°
Enters shadow 19:38:32 42° 116° (ESE) 1,915 3.5 -24.2°
